Location: Clyde
(45.1830°S, 169.3170°E)
Time: 17:46:40
(UTC+12:00)

Cosmos 1606 - Pass Details

Date: 14 May 2021
Orbit: 503 x 525 km, 82.5° (Epoch: 16 June)

Event Time Altitude Azimuth Distance (km) Brightness Sun altitude
Rises 18:27:55 0° 180° (S) 2,660 6.2 -11.2°
Reaches altitude 10° 18:30:15 10° 169° (S) 1,761 5.1 -11.6°
Maximum altitude 18:33:44 31° 105° (ESE) 922 3.4 -12.2°
Drops below altitude 10° 18:37:09 10° 41° (NE) 1,731 5.1 -12.8°
Sets 18:39:25 0° 30° (NNE) 2,606 6.1 -13.2°
